Date String (YYYY-MM-DD hh:mm:ss) UTC,Instrument flags,absolute air pressure of the measurement (hPa),sample flow rate (lpm),inlet stack bypass flow (lpm),air temperature of the measurement (°C),ambient temperature measured by the external sensor (°C),aerosol sample conditioner tube jacket temperature (°C),OPC LED temperature (°C),internal box temperature (°C),relative humidity of the measurement (%),span deviation,mass concentration of particles derived from Lorenz-Mie calculation of OPC scattering (μg/m³),mass concentration of particles derived from Lorenz-Mie calculation of OPC scattering (μg/m³),mass concentration of particles derived from Lorenz-Mie calculation of OPC scattering (μg/m³)
DateTimeUTC,F1_M11,P_M11,Q1_M11,Q2_M11,T1_M11,T2_M11,T3_M11,T4_M11,T5_M11,U1_M11,ZSPAN_M11,X2_M11,X0_M11,X1_M11
2024-02-22 17:00:00,SystemResetWarning,0831.6,5.01,000.00,020.0,019.5,000.0,028.5,021.8,26.3,0000.0,0003.36,0004.38,0003.19
2024-02-22 17:01:00,SystemResetWarning,0831.6,5.00,000.00,020.0,019.5,000.0,028.5,021.8,26.4,0000.0,0003.35,0004.42,0003.18
2024-02-22 17:02:00,SystemResetWarning,0831.6,5.00,000.00,020.0,019.5,000.0,028.5,021.8,26.4,0000.0,0003.37,0004.60,0003.17
2024-02-22 17:03:00,SystemResetWarning,0831.6,5.00,000.00,020.0,019.5,000.0,028.5,021.8,26.6,0000.0,0003.37,0004.61,0003.17
2024-02-22 17:04:00,SystemResetWarning,0831.6,4.99,000.00,020.0,019.5,000.0,028.5,021.8,26.5,0000.0,0003.37,0004.58,0003.17
2024-02-22 17:05:00,SystemResetWarning,0831.6,4.99,000.00,020.0,019.5,000.0,028.5,021.8,26.4,0000.0,0003.36,0004.54,0003.16
2024-02-22 17:06:00,SystemResetWarning,0831.7,5.00,000.00,020.0,019.5,000.0,028.5,021.8,26.4,0000.0,0003.35,0004.50,0003.16
2024-02-22 17:07:00,SystemResetWarning,0831.8,5.01,000.00,020.0,019.5,000.0,028.5,021.8,26.4,0000.0,0003.35,0004.54,0003.15
2024-02-22 17:08:00,SystemResetWarning,0832.0,5.00,000.00,020.0,019.5,000.0,028.5,021.8,26.4,0000.0,0003.35,0004.42,0003.15
2024-02-22 17:09:00,SystemResetWarning,0832.1,5.00,000.00,020.0,019.5,000.0,028.5,021.8,26.4,0000.0,0003.35,0004.43,0003.15
2024-02-22 17:10:00,SystemResetWarning,0832.0,5.00,000.00,020.0,019.5,000.0,028.5,021.8,26.4,0000.0,0003.37,0004.54,0003.15
2024-02-22 17:11:00,SystemResetWarning,0832.3,5.00,000.00,020.0,019.5,000.0,028.5,021.8,26.4,0000.0,0003.38,0004.52,0003.16
2024-02-22 17:12:00,SystemResetWarning,0832.0,5.00,000.00,020.0,019.5,000.0,028.5,021.9,26.3,0000.0,0003.37,0004.46,0003.16
2024-02-22 17:13:00,SystemResetWarning,0832.3,5.00,000.00,020.0,019.5,000.0,028.5,021.9,26.2,0000.0,0003.35,0004.32,0003.15
2024-02-22 17:14:00,SystemResetWarning,0832.3,5.00,000.00,020.0,019.5,000.0,028.5,021.8,26.2,0000.0,0003.34,0004.27,0003.14
2024-02-22 17:15:00,SystemResetWarning,0832.3,5.00,000.00,020.0,019.5,000.0,028.5,021.8,26.2,0000.0,0003.36,0004.38,0003.14
2024-02-22 17:16:00,SystemResetWarning,0832.1,5.00,000.00,020.0,019.5,000.0,028.5,021.8,26.2,0000.0,0003.36,0004.41,0003.14
2024-02-22 17:17:00,SystemResetWarning,0831.9,5.00,000.00,020.0,019.5,000.0,028.5,021.8,26.3,0000.0,0003.37,0004.45,0003.14
2024-02-22 17:18:00,SystemResetWarning,0831.8,5.01,000.00,020.0,019.5,000.0,028.5,021.8,26.3,0000.0,0003.37,0004.45,0003.14
2024-02-22 17:19:00,SystemResetWarning,0831.8,5.00,000.00,020.0,019.5,000.0,028.5,021.8,26.5,0000.0,0003.38,0004.46,0003.15
2024-02-22 17:20:00,SystemResetWarning,0831.9,5.01,000.00,020.0,019.5,000.0,028.5,021.8,26.6,0000.0,0003.39,0004.49,0003.15
2024-02-22 17:21:00,SystemResetWarning,0831.9,4.99,000.00,020.0,019.5,000.0,028.5,021.8,26.7,0000.0,0003.37,0004.38,0003.15
2024-02-22 17:22:00,SystemResetWarning,0831.9,5.00,000.00,020.0,019.5,000.0,028.5,021.8,26.8,0000.0,0003.34,0004.30,0003.13
2024-02-22 17:23:00,SystemResetWarning,0832.0,4.99,000.00,020.0,019.5,000.0,028.5,021.8,26.9,0000.0,0003.36,0004.44,0003.14
2024-02-22 17:24:00,SystemResetWarning,0832.0,5.00,000.00,020.0,019.5,000.0,028.5,021.8,26.7,0000.0,0003.37,0004.47,0003.16
2024-02-22 17:25:00,SystemResetWarning,0832.0,5.00,000.00,020.0,019.5,000.0,028.5,021.8,26.6,0000.0,0003.38,0004.51,0003.17
2024-02-22 17:26:00,SystemResetWarning,0832.0,5.01,000.00,020.0,019.5,000.0,028.5,021.8,26.6,0000.0,0003.39,0004.53,0003.18
2024-02-22 17:27:00,SystemResetWarning,0832.0,5.00,000.00,020.0,019.4,000.0,028.5,021.8,26.6,0000.0,0003.36,0004.52,0003.18
2024-02-22 17:28:00,SystemResetWarning,0832.0,5.01,000.00,020.0,019.4,000.0,028.5,021.8,26.8,0000.0,0003.38,0005.26,0003.18
2024-02-22 17:29:00,SystemResetWarning,0832.0,5.00,000.00,020.0,019.4,000.0,028.5,021.8,26.7,0000.0,0003.39,0005.27,0003.19
2024-02-22 17:30:00,SystemResetWarning,0832.0,5.00,000.00,020.0,019.4,000.0,028.5,021.8,26.6,0000.0,0003.40,0005.34,0003.20
2024-02-22 17:31:00,SystemResetWarning,0832.0,5.00,000.00,020.0,019.4,000.0,028.5,021.8,26.6,0000.0,0003.45,0005.50,0003.21
2024-02-22 17:32:00,SystemResetWarning,0832.0,5.00,000.00,020.0,019.4,000.0,028.5,021.8,26.7,0000.0,0003.48,0005.60,0003.22
2024-02-22 17:33:00,SystemResetWarning,0832.0,5.01,000.00,020.0,019.4,000.0,028.5,021.8,26.6,0000.0,0003.48,0005.58,0003.25
2024-02-22 17:34:00,SystemResetWarning,0832.0,5.00,000.00,020.0,019.4,000.0,028.5,021.8,26.6,0000.0,0003.49,0005.49,0003.26
2024-02-22 17:35:00,SystemResetWarning,0832.0,5.00,000.00,020.0,019.4,000.0,028.4,021.8,26.5,0000.0,0003.49,0005.46,0003.27
2024-02-22 17:36:00,SystemResetWarning,0832.1,5.00,000.00,020.0,019.4,000.0,028.4,021.8,26.5,0000.0,0003.52,0005.67,0003.26
2024-02-22 17:37:00,SystemResetWarning,0832.1,5.00,000.00,020.0,019.4,000.0,028.4,021.8,26.5,0000.0,0003.52,0005.65,0003.26
2024-02-22 17:38:00,SystemResetWarning,0832.1,5.01,000.00,020.0,019.4,000.0,028.4,021.8,26.4,0000.0,0003.50,0005.56,0003.25
2024-02-22 17:39:00,SystemResetWarning,0832.2,4.99,000.00,020.0,019.5,000.0,028.5,021.8,26.3,0000.0,0003.50,0005.39,0003.25
2024-02-22 17:40:00,SystemResetWarning,0832.2,4.99,000.00,020.0,019.5,000.0,028.5,021.8,26.3,0000.0,0003.47,0004.77,0003.25
2024-02-22 17:41:00,SystemResetWarning,0832.1,4.99,000.00,020.0,019.5,000.0,028.5,021.8,26.2,0000.0,0003.47,0004.82,0003.23
2024-02-22 17:42:00,SystemResetWarning,0832.2,5.01,000.00,020.0,019.5,000.0,028.4,021.8,26.2,0000.0,0003.45,0004.72,0003.23
2024-02-22 17:43:00,SystemResetWarning,0832.2,5.01,000.00,020.0,019.5,000.0,028.5,021.8,26.2,0000.0,0003.42,0004.68,0003.22
2024-02-22 17:44:00,SystemResetWarning,0832.2,4.98,000.00,020.0,019.5,000.0,028.4,021.8,26.2,0000.0,0003.42,0004.75,0003.20
2024-02-22 17:45:00,SystemResetWarning,0832.2,4.99,000.00,020.0,019.5,000.0,028.4,021.8,26.2,0000.0,0003.40,0004.76,0003.17
2024-02-22 17:46:00,SystemResetWarning,0832.2,5.01,000.00,020.0,019.5,000.0,028.5,021.8,26.1,0000.0,0003.39,0004.79,0003.14
2024-02-22 17:47:00,SystemResetWarning,0832.2,5.02,000.00,020.0,019.5,000.0,028.5,021.8,26.2,0000.0,0003.34,0004.59,0003.11
2024-02-22 17:48:00,SystemResetWarning,0832.2,5.00,000.00,020.0,019.5,000.0,028.5,021.8,26.2,0000.0,0003.31,0004.49,0003.09
2024-02-22 17:49:00,SystemResetWarning,0832.2,4.99,000.00,020.0,019.5,000.0,028.4,021.8,26.2,0000.0,0003.29,0004.50,0003.05
2024-02-22 17:50:00,SystemResetWarning,0832.2,5.00,000.00,020.0,019.5,000.0,028.4,021.8,26.2,0000.0,0003.27,0004.48,0003.02
2024-02-22 17:51:00,SystemResetWarning,0832.2,5.00,000.00,020.0,019.5,000.0,028.4,021.8,26.2,0000.0,0003.25,0004.41,0002.98
2024-02-22 17:52:00,SystemResetWarning,0832.2,5.00,000.00,020.0,019.5,000.0,028.4,021.8,26.2,0000.0,0003.24,0004.41,0002.97
2024-02-22 17:53:00,SystemResetWarning,0832.2,5.00,000.00,020.0,019.5,000.0,028.4,021.8,26.3,0000.0,0003.23,0004.43,0002.93
2024-02-22 17:54:00,SystemResetWarning,0832.2,5.01,000.00,020.0,019.5,000.0,028.4,021.8,26.4,0000.0,0003.17,0004.25,0002.86
2024-02-22 17:55:00,SystemResetWarning,0832.2,5.00,000.00,020.0,019.5,000.0,028.4,021.8,26.4,0000.0,0003.10,0004.03,0002.78
2024-02-22 17:56:00,SystemResetWarning,0832.2,5.00,000.00,020.0,019.5,000.0,028.4,021.8,26.4,0000.0,0003.03,0003.90,0002.74
2024-02-22 17:57:00,SystemResetWarning,0832.2,5.00,000.00,020.0,019.5,000.0,028.4,021.8,26.4,0000.0,0002.99,0003.81,0002.71
2024-02-22 17:58:00,SystemResetWarning,0832.2,5.00,000.00,020.0,019.5,000.0,028.4,021.8,26.4,0000.0,0002.94,0003.75,0002.69
2024-02-22 17:59:00,SystemResetWarning,0832.2,5.01,000.00,020.0,019.5,000.0,028.4,021.8,26.5,0000.0,0002.90,0003.66,0002.68
